• In Hungary
  • List of Countries
  • For 7 days
  • Water Temperature
  • Satellite Maps
  • Weather Map
  • News
  • Weather Widgets
  • user-avatar
    Login

    Hourly Weather Glebkovo

    Today, 21 September, Friday

    Time Temperature Precipitation Wind Pressure Humidity
    00:00 +15°C° 0 mm 1 mps 744 mmHg 89%
    01:00 +15°C° 0 mm 1 mps 744 mmHg 90%
    02:00 +15°C° 0 mm 1 mps 744 mmHg 90%
    03:00 +14°C° 0 mm 1 mps 744 mmHg 91%
    04:00 +14°C° 0 mm 1 mps 745 mmHg 91%
    05:00 +14°C° 0 mm 1 mps 745 mmHg 92%
    06:00 +14°C° 0 mm 2 mps 745 mmHg 92%
    07:00 +15°C° 0 mm 2 mps 745 mmHg 87%
    08:00 +17°C° 0 mm 2 mps 745 mmHg 83%
    09:00 +18°C° 0 mm 2 mps 746 mmHg 76%
    10:00 +20°C° 0 mm 2 mps 746 mmHg 70%
    11:00 +21°C° 0 mm 2 mps 746 mmHg 64%
    12:00 +23°C° 0 mm 2 mps 746 mmHg 59%
    13:00 +24°C° 0 mm 2 mps 746 mmHg 56%
    14:00 +25°C° 0 mm 2 mps 746 mmHg 54%
    15:00 +25°C° 0 mm 2 mps 746 mmHg 52%
    16:00 +24°C° 0 mm 2 mps 746 mmHg 57%
    17:00 +23°C° 0 mm 1 mps 746 mmHg 62%
    18:00 +21°C° 0 mm 1 mps 746 mmHg 67%
    19:00 +20°C° 0 mm 1 mps 746 mmHg 70%
    20:00 +19°C° 0 mm 1 mps 746 mmHg 74%
    21:00 +18°C° 0 mm 1 mps 746 mmHg 77%
    22:00 +17°C° 0 mm 2 mps 746 mmHg 79%
    23:00 +16°C° 0 mm 2 mps 746 mmHg 80%

    Tomorrow, 22 September, Saturday

    Time Temperature Precipitation Wind Pressure Humidity
    00:00 +16°C° 0 mm 2 mps 746 mmHg 81%
    01:00 +16°C° 0 mm 2 mps 746 mmHg 82%
    02:00 +15°C° 0 mm 2 mps 746 mmHg 82%
    03:00 +15°C° 0 mm 2 mps 746 mmHg 82%
    04:00 +15°C° 0 mm 2 mps 745 mmHg 83%
    05:00 +15°C° 0 mm 2 mps 745 mmHg 84%
    06:00 +14°C° 0 mm 3 mps 745 mmHg 84%
    07:00 +16°C° 0 mm 3 mps 745 mmHg 80%
    08:00 +18°C° 0 mm 3 mps 745 mmHg 76%
    09:00 +19°C° 0 mm 4 mps 745 mmHg 72%
    10:00 +21°C° 0 mm 4 mps 745 mmHg 67%
    11:00 +23°C° 0 mm 5 mps 745 mmHg 63%
    12:00 +25°C° 0 mm 5 mps 744 mmHg 58%
    13:00 +25°C° 0 mm 5 mps 744 mmHg 56%
    14:00 +26°C° 0 mm 5 mps 744 mmHg 54%
    15:00 +26°C° 0 mm 6 mps 743 mmHg 51%
    16:00 +25°C° 0 mm 5 mps 743 mmHg 56%
    17:00 +23°C° 0 mm 5 mps 742 mmHg 61%
    18:00 +21°C° 0 mm 4 mps 742 mmHg 66%
    19:00 +21°C° 0 mm 4 mps 742 mmHg 65%
    20:00 +21°C° 0 mm 5 mps 741 mmHg 64%
    21:00 +20°C° 0 mm 5 mps 741 mmHg 64%
    22:00 +20°C° 0 mm 6 mps 741 mmHg 63%
    23:00 +20°C° 0 mm 6 mps 740 mmHg 62%

    Day after tomorrow, 23 September, Sunday

    Time Temperature Precipitation Wind Pressure Humidity
    00:00 +19°C° 0 mm 6 mps 740 mmHg 60%
    01:00 +19°C° 0.2 mm 6 mps 739 mmHg 61%
    02:00 +19°C° 0.2 mm 6 mps 739 mmHg 61%
    03:00 +17°C° 0.2 mm 6 mps 739 mmHg 61%
    04:00 +17°C° 0.2 mm 5 mps 738 mmHg 64%
    05:00 +16°C° 0.2 mm 5 mps 738 mmHg 66%
    06:00 +15°C° 0.2 mm 5 mps 738 mmHg 69%
    07:00 +15°C° 0.3 mm 5 mps 737 mmHg 72%
    08:00 +15°C° 0.3 mm 4 mps 737 mmHg 75%
    09:00 +14°C° 0.3 mm 4 mps 737 mmHg 78%
    10:00 +13°C° 1.1 mm 5 mps 737 mmHg 80%
    11:00 +12°C° 1.1 mm 5 mps 737 mmHg 82%
    12:00 +10°C° 1.1 mm 6 mps 737 mmHg 84%
    13:00 +10°C° 0.9 mm 5 mps 738 mmHg 84%
    14:00 +9°C° 0.9 mm 5 mps 738 mmHg 84%
    15:00 +9°C° 0.9 mm 5 mps 738 mmHg 84%
    16:00 +10°C° 0.5 mm 4 mps 738 mmHg 85%
    17:00 +10°C° 0.5 mm 4 mps 739 mmHg 86%
    18:00 +10°C° 0.5 mm 4 mps 739 mmHg 87%
    19:00 +10°C° 0.1 mm 4 mps 739 mmHg 87%
    20:00 +10°C° 0.1 mm 4 mps 739 mmHg 87%
    21:00 +8°C° 0.1 mm 4 mps 739 mmHg 88%
    22:00 +8°C° 0 mm 4 mps 738 mmHg 89%
    23:00 +7°C° 0 mm 4 mps 738 mmHg 89%

    24 September, Monday

    Time Temperature Precipitation Wind Pressure Humidity
    00:00 +7°C° 0 mm 4 mps 738 mmHg 90%
    01:00 +8°C° 0 mm 3 mps 738 mmHg 92%
    02:00 +7°C° 0 mm 3 mps 738 mmHg 93%
    03:00 +7°C° 0 mm 3 mps 738 mmHg 95%
    04:00 +7°C° 0 mm 3 mps 738 mmHg 95%
    05:00 +5°C° 0 mm 3 mps 738 mmHg 95%
    06:00 +5°C° 0 mm 3 mps 738 mmHg 95%
    07:00 +7°C° 0 mm 3 mps 738 mmHg 90%
    08:00 +8°C° 0 mm 3 mps 738 mmHg 86%
    09:00 +9°C° 0 mm 3 mps 738 mmHg 82%
    10:00 +10°C° 0 mm 4 mps 738 mmHg 76%
    11:00 +12°C° 0 mm 4 mps 738 mmHg 70%
    12:00 +13°C° 0 mm 4 mps 738 mmHg 65%
    13:00 +13°C° 0 mm 4 mps 738 mmHg 63%
    14:00 +14°C° 0 mm 4 mps 737 mmHg 61%
    15:00 +14°C° 0 mm 3 mps 737 mmHg 59%
    16:00 +13°C° 0 mm 3 mps 736 mmHg 64%
    17:00 +12°C° 0 mm 3 mps 736 mmHg 68%
    18:00 +11°C° 0 mm 3 mps 735 mmHg 73%
    19:00 +11°C° 0.8 mm 4 mps 734 mmHg 76%
    20:00 +9°C° 0.8 mm 5 mps 734 mmHg 80%
    21:00 +9°C° 0.8 mm 6 mps 733 mmHg 83%
    22:00 +8°C° 3.2 mm 7 mps 731 mmHg 85%
    23:00 +7°C° 3.2 mm 8 mps 730 mmHg 88%

    25 September, Tuesday

    Time Temperature Precipitation Wind Pressure Humidity
    00:00 +7°C° 3.2 mm 9 mps 728 mmHg 90%
    01:00 +7°C° 1.9 mm 8 mps 727 mmHg 89%
    02:00 +9°C° 1.9 mm 8 mps 726 mmHg 89%
    03:00 +9°C° 1.9 mm 7 mps 724 mmHg 88%
    04:00 +9°C° 0.6 mm 7 mps 724 mmHg 88%
    05:00 +8°C° 0.6 mm 6 mps 723 mmHg 89%
    06:00 +8°C° 0.6 mm 5 mps 722 mmHg 89%
    07:00 +8°C° 0.7 mm 5 mps 722 mmHg 90%
    08:00 +8°C° 0.7 mm 4 mps 722 mmHg 91%
    09:00 +8°C° 0.7 mm 4 mps 722 mmHg 92%
    10:00 +8°C° 0.5 mm 4 mps 723 mmHg 91%
    11:00 +8°C° 0.5 mm 4 mps 723 mmHg 90%
    12:00 +8°C° 0.5 mm 5 mps 724 mmHg 90%
    13:00 +8°C° 0.4 mm 6 mps 725 mmHg 89%
    14:00 +8°C° 0.4 mm 7 mps 725 mmHg 88%
    15:00 +7°C° 0.4 mm 8 mps 726 mmHg 88%
    16:00 +6°C° 0.4 mm 8 mps 727 mmHg 87%
    17:00 +6°C° 0.4 mm 9 mps 727 mmHg 86%
    18:00 +6°C° 0.4 mm 9 mps 728 mmHg 86%
    19:00 +6°C° 0.3 mm 9 mps 729 mmHg 85%
    20:00 +6°C° 0.3 mm 9 mps 730 mmHg 85%
    21:00 +5°C° 0.3 mm 9 mps 731 mmHg 85%
    22:00 +5°C° 0.1 mm 9 mps 731 mmHg 84%
    23:00 +5°C° 0.1 mm 9 mps 732 mmHg 84%

    26 September, Wednesday

    Time Temperature Precipitation Wind Pressure Humidity
    00:00 +5°C° 0.1 mm 9 mps 733 mmHg 83%
    01:00 +5°C° 0.1 mm 9 mps 734 mmHg 83%
    02:00 +4°C° 0.1 mm 8 mps 734 mmHg 84%
    03:00 +4°C° 0.1 mm 8 mps 735 mmHg 84%
    04:00 +4°C° 0 mm 8 mps 736 mmHg 83%
    05:00 +4°C° 0 mm 7 mps 736 mmHg 83%
    06:00 +3°C° 0 mm 7 mps 737 mmHg 82%
    07:00 +3°C° 0 mm 7 mps 737 mmHg 81%
    08:00 +3°C° 0 mm 7 mps 738 mmHg 80%
    09:00 +3°C° 0 mm 7 mps 738 mmHg 79%
    10:00 +3°C° 0 mm 6 mps 738 mmHg 76%
    11:00 +4°C° 0 mm 6 mps 739 mmHg 72%
    12:00 +5°C° 0 mm 6 mps 739 mmHg 68%
    13:00 +6°C° 0 mm 5 mps 739 mmHg 64%
    14:00 +7°C° 0 mm 5 mps 739 mmHg 59%
    15:00 +7°C° 0 mm 5 mps 739 mmHg 55%
    16:00 +6°C° 0.1 mm 4 mps 739 mmHg 59%
    17:00 +7°C° 0.1 mm 3 mps 739 mmHg 63%
    18:00 +5°C° 0.1 mm 3 mps 739 mmHg 67%
    19:00 +4°C° 0 mm 3 mps 739 mmHg 71%
    20:00 +3°C° 0 mm 3 mps 740 mmHg 75%
    21:00 +3°C° 0 mm 3 mps 740 mmHg 79%
    22:00 +2°C° 0 mm 3 mps 740 mmHg 81%
    23:00 +2°C° 0 mm 3 mps 741 mmHg 83%
    Show more